When you browse on this site, cookies collect data to enhance your experience and personalize the content and advertising you see.
Visit our Privacy Policy to learn more. By continuing to use the site, you agree to this use of cookies and data.
  • Em Portugal
  • Lista de países
  • Para 7 dias
  • Temperatura da água
  • Mapas de satélite
  • Mapa do tempo
  • Widgets de tempo
  • user-avatar
    Iniciar Sessão

    Previsão horária em Prutz

    Hoje, 20 Julho, Sábado

    Tempo Temperatura Precipitação Vento Pressão Humidade
    00:00 +11°C° 0 mm 1 m/s 635 mmHg 91%
    01:00 +11°C° 0 mm 1 m/s 635 mmHg 90%
    02:00 +10°C° 0 mm 2 m/s 635 mmHg 89%
    03:00 +10°C° 0 mm 2 m/s 635 mmHg 88%
    04:00 +10°C° 0 mm 2 m/s 635 mmHg 88%
    05:00 +13°C° 0 mm 2 m/s 636 mmHg 85%
    06:00 +14°C° 0 mm 2 m/s 636 mmHg 82%
    07:00 +16°C° 0 mm 2 m/s 637 mmHg 79%
    08:00 +19°C° 0 mm 1 m/s 637 mmHg 70%
    09:00 +21°C° 0 mm 1 m/s 638 mmHg 61%
    10:00 +23°C° 0 mm 1 m/s 639 mmHg 52%
    11:00 +23°C° 0.4 mm 1 m/s 639 mmHg 52%
    12:00 +24°C° 0.4 mm 1 m/s 639 mmHg 52%
    13:00 +24°C° 0.4 mm 1 m/s 639 mmHg 52%
    14:00 +23°C° 1.2 mm 1 m/s 639 mmHg 57%
    15:00 +22°C° 1.2 mm 1 m/s 638 mmHg 62%
    16:00 +22°C° 1.2 mm 1 m/s 638 mmHg 66%
    17:00 +21°C° 1.3 mm 1 m/s 638 mmHg 71%
    18:00 +18°C° 1.3 mm 0 m/s 638 mmHg 77%
    19:00 +17°C° 1.3 mm 0 m/s 638 mmHg 82%
    20:00 +16°C° 0.2 mm 0 m/s 638 mmHg 83%
    21:00 +16°C° 0.2 mm 1 m/s 638 mmHg 83%
    22:00 +14°C° 0.2 mm 1 m/s 638 mmHg 83%
    23:00 +14°C° 0 mm 1 m/s 638 mmHg 83%

    Amanhã, 21 Julho, Domingo

    Tempo Temperatura Precipitação Vento Pressão Humidade
    00:00 +14°C° 0 mm 1 m/s 638 mmHg 83%
    01:00 +13°C° 0 mm 1 m/s 638 mmHg 83%
    02:00 +14°C° 0 mm 1 m/s 638 mmHg 82%
    03:00 +14°C° 0 mm 1 m/s 638 mmHg 82%
    04:00 +14°C° 0 mm 1 m/s 638 mmHg 82%
    05:00 +15°C° 0 mm 1 m/s 638 mmHg 79%
    06:00 +16°C° 0 mm 1 m/s 639 mmHg 76%
    07:00 +19°C° 0 mm 1 m/s 640 mmHg 73%
    08:00 +20°C° 0.2 mm 1 m/s 640 mmHg 70%
    09:00 +21°C° 0.2 mm 1 m/s 641 mmHg 66%
    10:00 +21°C° 0.2 mm 2 m/s 641 mmHg 62%
    11:00 +21°C° 0.9 mm 2 m/s 641 mmHg 64%
    12:00 +21°C° 0.9 mm 2 m/s 641 mmHg 65%
    13:00 +21°C° 0.9 mm 2 m/s 641 mmHg 66%
    14:00 +21°C° 0.7 mm 2 m/s 641 mmHg 65%
    15:00 +21°C° 0.7 mm 2 m/s 641 mmHg 64%
    16:00 +21°C° 0.7 mm 2 m/s 642 mmHg 63%
    17:00 +20°C° 0.3 mm 2 m/s 641 mmHg 69%
    18:00 +19°C° 0.3 mm 2 m/s 641 mmHg 76%
    19:00 +19°C° 0.3 mm 1 m/s 641 mmHg 82%
    20:00 +18°C° 0.1 mm 1 m/s 641 mmHg 85%
    21:00 +14°C° 0.1 mm 0 m/s 640 mmHg 87%
    22:00 +12°C° 0.1 mm 0 m/s 640 mmHg 90%
    23:00 +12°C° 0 mm 0 m/s 640 mmHg 89%

    Depois de amanhã, 22 Julho, Segunda-feira

    Tempo Temperatura Precipitação Vento Pressão Humidade
    00:00 +12°C° 0 mm 0 m/s 640 mmHg 88%
    01:00 +12°C° 0 mm 0 m/s 640 mmHg 88%
    02:00 +12°C° 0 mm 0 m/s 640 mmHg 87%
    03:00 +12°C° 0 mm 0 m/s 640 mmHg 87%
    04:00 +12°C° 0 mm 0 m/s 640 mmHg 86%
    05:00 +13°C° 0 mm 0 m/s 640 mmHg 83%
    06:00 +15°C° 0 mm 0 m/s 641 mmHg 80%
    07:00 +16°C° 0 mm 0 m/s 642 mmHg 77%
    08:00 +18°C° 0 mm 0 m/s 642 mmHg 71%
    09:00 +22°C° 0 mm 1 m/s 643 mmHg 64%
    10:00 +23°C° 0 mm 1 m/s 643 mmHg 58%
    11:00 +24°C° 0 mm 1 m/s 643 mmHg 53%
    12:00 +25°C° 0 mm 1 m/s 644 mmHg 48%
    13:00 +26°C° 0 mm 2 m/s 644 mmHg 43%
    14:00 +26°C° 0 mm 2 m/s 643 mmHg 44%
    15:00 +26°C° 0 mm 2 m/s 643 mmHg 45%
    16:00 +26°C° 0 mm 3 m/s 643 mmHg 46%
    17:00 +24°C° 0 mm 2 m/s 643 mmHg 56%
    18:00 +23°C° 0 mm 2 m/s 642 mmHg 67%
    19:00 +20°C° 0 mm 2 m/s 642 mmHg 77%
    20:00 +19°C° 0 mm 1 m/s 641 mmHg 83%
    21:00 +16°C° 0 mm 1 m/s 641 mmHg 89%
    22:00 +13°C° 0 mm 0 m/s 640 mmHg 95%
    23:00 +13°C° 0 mm 0 m/s 640 mmHg 95%

    23 Julho, Terça-feira

    Tempo Temperatura Precipitação Vento Pressão Humidade
    00:00 +13°C° 0 mm 0 m/s 640 mmHg 95%
    01:00 +12°C° 0 mm 0 m/s 640 mmHg 95%
    02:00 +12°C° 0 mm 0 m/s 639 mmHg 94%
    03:00 +12°C° 0 mm 0 m/s 639 mmHg 93%
    04:00 +12°C° 0 mm 0 m/s 639 mmHg 92%
    05:00 +14°C° 0 mm 0 m/s 640 mmHg 86%
    06:00 +16°C° 0 mm 0 m/s 640 mmHg 79%
    07:00 +18°C° 0 mm 0 m/s 641 mmHg 72%
    08:00 +19°C° 0 mm 0 m/s 641 mmHg 63%
    09:00 +23°C° 0 mm 1 m/s 642 mmHg 53%
    10:00 +25°C° 0 mm 1 m/s 643 mmHg 43%
    11:00 +26°C° 0 mm 1 m/s 642 mmHg 40%
    12:00 +27°C° 0 mm 2 m/s 642 mmHg 37%
    13:00 +28°C° 0 mm 2 m/s 642 mmHg 34%
    14:00 +28°C° 0 mm 2 m/s 642 mmHg 35%
    15:00 +28°C° 0 mm 2 m/s 642 mmHg 36%
    16:00 +27°C° 0 mm 2 m/s 642 mmHg 38%
    17:00 +26°C° 0 mm 2 m/s 641 mmHg 48%
    18:00 +24°C° 0 mm 2 m/s 641 mmHg 59%
    19:00 +23°C° 0 mm 1 m/s 640 mmHg 70%
    20:00 +21°C° 0 mm 1 m/s 640 mmHg 76%
    21:00 +19°C° 0 mm 1 m/s 639 mmHg 83%
    22:00 +15°C° 0 mm 0 m/s 639 mmHg 89%
    23:00 +15°C° 0 mm 0 m/s 639 mmHg 88%

    24 Julho, Quarta-feira

    Tempo Temperatura Precipitação Vento Pressão Humidade
    00:00 +16°C° 0 mm 1 m/s 639 mmHg 87%
    01:00 +16°C° 0 mm 1 m/s 639 mmHg 86%
    02:00 +15°C° 0 mm 1 m/s 638 mmHg 86%
    03:00 +15°C° 0 mm 1 m/s 638 mmHg 87%
    04:00 +15°C° 0 mm 1 m/s 638 mmHg 87%
    05:00 +18°C° 0 mm 1 m/s 639 mmHg 82%
    06:00 +18°C° 0 mm 0 m/s 639 mmHg 76%
    07:00 +19°C° 0 mm 0 m/s 640 mmHg 70%
    08:00 +23°C° 0 mm 1 m/s 641 mmHg 60%
    09:00 +25°C° 0 mm 1 m/s 641 mmHg 50%
    10:00 +27°C° 0 mm 1 m/s 642 mmHg 39%
    11:00 +28°C° 0 mm 1 m/s 642 mmHg 37%
    12:00 +29°C° 0 mm 2 m/s 642 mmHg 35%
    13:00 +29°C° 0 mm 2 m/s 642 mmHg 32%
    14:00 +29°C° 0.1 mm 2 m/s 642 mmHg 34%
    15:00 +29°C° 0.1 mm 2 m/s 641 mmHg 37%
    16:00 +29°C° 0.1 mm 2 m/s 641 mmHg 39%
    17:00 +27°C° 0 mm 2 m/s 641 mmHg 50%
    18:00 +25°C° 0 mm 2 m/s 640 mmHg 60%
    19:00 +24°C° 0 mm 1 m/s 640 mmHg 71%
    20:00 +22°C° 0.1 mm 1 m/s 639 mmHg 77%
    21:00 +20°C° 0.1 mm 1 m/s 639 mmHg 82%
    22:00 +16°C° 0.1 mm 0 m/s 639 mmHg 88%
    23:00 +16°C° 0 mm 0 m/s 639 mmHg 88%

    25 Julho, Quinta-feira

    Tempo Temperatura Precipitação Vento Pressão Humidade
    00:00 +16°C° 0 mm 0 m/s 639 mmHg 87%
    01:00 +18°C° 0 mm 1 m/s 639 mmHg 87%
    02:00 +16°C° 0 mm 1 m/s 638 mmHg 86%
    03:00 +16°C° 0 mm 1 m/s 638 mmHg 86%
    04:00 +16°C° 0 mm 1 m/s 638 mmHg 86%
    05:00 +19°C° 0 mm 1 m/s 639 mmHg 80%
    06:00 +20°C° 0 mm 1 m/s 639 mmHg 75%
    07:00 +22°C° 0 mm 1 m/s 640 mmHg 70%
    08:00 +24°C° 0 mm 1 m/s 641 mmHg 62%
    09:00 +26°C° 0 mm 1 m/s 641 mmHg 55%
    10:00 +28°C° 0 mm 1 m/s 642 mmHg 48%
    11:00 +29°C° 0.1 mm 1 m/s 642 mmHg 45%
    12:00 +29°C° 0.1 mm 1 m/s 642 mmHg 42%
    13:00 +30°C° 0.1 mm 1 m/s 642 mmHg 39%
    14:00 +29°C° 0.8 mm 1 m/s 641 mmHg 44%
    15:00 +29°C° 0.8 mm 2 m/s 641 mmHg 48%
    16:00 +28°C° 0.8 mm 2 m/s 641 mmHg 52%
    17:00 +26°C° 0.7 mm 1 m/s 640 mmHg 62%
    18:00 +25°C° 0.7 mm 1 m/s 640 mmHg 71%
    19:00 +21°C° 0.7 mm 0 m/s 640 mmHg 80%
    20:00 +22°C° 1 mm 1 m/s 639 mmHg 81%
    21:00 +21°C° 1 mm 1 m/s 639 mmHg 82%
    22:00 +20°C° 1 mm 1 m/s 639 mmHg 83%
    23:00 +20°C° 0.3 mm 1 m/s 639 mmHg 83%
    Mostrar mais